This is the latest recevied weather packets stored in our database for station/object N0MPM-4. If no packets are shown the sender has not sent any weather packets the latest 10 day(s).
| Time | Temp. | Humidity | Pressure | Rain* | Wind** | Luminosity | Snow |
|---|---|---|---|---|---|---|---|
| 1787568798 | 16.11° C | 25% | 1016.9 hPa | 0 mm | - | - | - |
| 1787568740 | 16.11° C | 25% | 1016.8 hPa | 0 mm | - | - | - |
| 1787568498 | 16.11° C | 25% | 1016.8 hPa | 0 mm | - | - | - |
| 1787568379 | 16.11° C | 24% | 1016.8 hPa | 0 mm | - | - | - |
| 1787568198 | 16.11° C | 24% | 1016.9 hPa | 0 mm | - | - | - |
| 1787568019 | 16.11° C | 22% | 1016.8 hPa | 0 mm | - | - | - |
| 1787567898 | 16.11° C | 18% | 1016.8 hPa | 0 mm | - | - | - |
| 1787567660 | 16.11° C | 17% | 1016.8 hPa | 0 mm | - | - | - |
| 1787567598 | 16.11° C | 17% | 1016.8 hPa | 0 mm | - | - | - |
| 1787567298 | 16.11° C | 14% | 1016.7 hPa | 0 mm | - | - | - |
| 1787566998 | 16.11° C | 12% | 1016.8 hPa | 0 mm | - | - | - |
| 1787566940 | 16.11° C | 12% | 1016.7 hPa | 0 mm | - | - | - |
| 1787566698 | 15.56° C | 18% | 1016.8 hPa | 0 mm | - | - | - |
| 1787566579 | 15.56° C | 22% | 1016.8 hPa | 0 mm | - | - | - |
| 1787566398 | 15.56° C | 24% | 1016.8 hPa | 0 mm | - | - | - |
| 1787566219 | 15.56° C | 25% | 1016.8 hPa | 0 mm | - | - | - |
| 1787566098 | 15.56° C | 25% | 1016.8 hPa | 0 mm | - | - | - |
| 1787565860 | 15.56° C | 26% | 1016.6 hPa | 0 mm | - | - | - |
| 1787565798 | 15.56° C | 27% | 1016.6 hPa | 0 mm | - | - | - |
| 1787565498 | 15.56° C | 27% | 1016.6 hPa | 0 mm | - | - | - |
| 1787565198 | 15.56° C | 26% | 1016.6 hPa | 0 mm | - | - | - |
| 1787565140 | 15.56° C | 26% | 1016.6 hPa | 0 mm | - | - | - |
| 1787564898 | 15.56° C | 26% | 1016.7 hPa | 0 mm | - | - | - |
| 1787564779 | 15.56° C | 27% | 1016.7 hPa | 0 mm | - | - | - |
| 1787564598 | 16.11° C | 26% | 1016.6 hPa | 0 mm | - | - | - |
* Rain latest hour (hover to see other rain measurements)
** Current wind speed in m/s (hover to see current wind gust speed)